Location: Hylvaty SDH
(49.9612°N, 16.4057°E)
Time: 21:02:35
(UTC+01:00)

Vanguard 1 Rocket - Pass Details

Date: 06 October 2020
Orbit: 656 x 4221 km, 34.3° (Epoch: 30 October)

Event Time Altitude Azimuth Distance (km) Brightness Sun altitude
Rises 23:14:42 0° 273° (W) 6,472 12.1 -41.9°
Reaches altitude 10° 23:19:51 10° 260° (W) 5,975 11.7 -42.3°
Maximum altitude 23:33:34 23° 217° (SW) 5,871 11.2 -43.3°
Enters shadow 23:34:14 23° 215° (SW) 5,906 11.2 -43.4°
Drops below altitude 10° 23:50:40 10° 175° (S) 7,416 - -44.3°
Sets 23:58:32 0° 164° (SSE) 8,340 - -44.7°
